Location: Fort Worth, Tx
(32.7431°N, 97.3695°W)
Time: 04:41:54
(UTC-05:00)

Altair - Pass Details

Date: 06 October 2023
Orbit: 1501 x 1682 km, 47.2° (Epoch: 06 December)

Event Time Altitude Azimuth Distance (km) Brightness Sun altitude
Rises 02:09:13 0° 227° (SW) 4,671 - -62.2°
Reaches altitude 10° 02:12:12 10° 226° (SW) 3,709 - -62.3°
Maximum altitude 02:21:38 84° 140° (SE) 1,594 - -62.3°
Drops below altitude 10° 02:31:29 10° 54° (NE) 3,865 - -62.1°
Exits shadow 02:32:04 - 54° (NE) 4,045 9.9 -62.1°
Sets 02:34:40 0° 54° (NE) 4,875 10.4 -62.0°
